Regional Weather Roundup
Issued by NWS

Home | Current Version | Previous Version | Text Only | Print | Product List | Glossary Off
Versions: 1 2 3 4 5 6 7 8 9 10 11 12 13 14 15 16 17 18 19 20 21 22 23 24 25 26 27 28 29 30 31 32 33 34 35 36 37 38 39 40 41 42 43 44 45 46 47 48

000
ASUS45 KPSR 232110
RWRAZ

ARIZONA HOURLY REGIONAL WEATHER ROUNDUP
NATIONAL WEATHER SERVICE PHOENIX AZ
200 PM MST TUE MAY 23 2017

NOTE: FAIR INDICATES FEW OR NO CLOUDS BELOW 12,000 FEET WITH NO
SIGNIFICANT WEATHER AND/OR OBSTRUCTIONS TO VISIBILITY.

AZZ001>003-036-232200-
NORTHWEST ARIZONA

CITY           SKY/WX    TMP DP  RH WIND       PRES   REMARKS
BULLHEAD CITY  SUNNY    104  28   7 NW10      29.82F
KINGMAN        SUNNY     95  26   8 NE6G20    30.03F
$$

AZZ004>008-015-016-018-232200-
NORTH CENTRAL ARIZONA

CITY           SKY/WX    TMP DP  RH WIND       PRES   REMARKS
GRAND CANYON   MOSUNNY   75  21  13 N6        30.25F
WILLIAMS       SUNNY     75  21  13 NW12G17   30.25F
PRESCOTT       SUNNY     85   8   5 VRB6      30.12F
FLAGSTAFF      SUNNY     73  19  13 VRB5      30.24F
PAYSON         SUNNY     88  23   9 W8G16     30.13F
PAGE           SUNNY     80  33  18 NE6       30.12F
$$

AZZ009>014-017-232200-
NORTHEAST ARIZONA

CITY           SKY/WX    TMP DP  RH WIND       PRES   REMARKS
WINSLOW        SUNNY     83  30  14 NW12G23   30.14F
SAINT JOHNS    SUNNY     79  23  12 NW12G29   30.13F
WINDOW ROCK    SUNNY     73  27  18 NW15G26   30.20F
SHOW LOW       SUNNY     72  23  16 N9        30.22F
$$

AZZ540-542>544-546-548-232200-
GREATER PHOENIX AREA

CITY           SKY/WX    TMP DP  RH WIND       PRES   REMARKS
PHOENIX        SUNNY    101  25   7 NW9G18    29.81F
BUCKEYE          N/A    100  23   6 S5        29.82F
GLENDALE       SUNNY    102  19   5 CALM      29.84F
LUKE AFB       SUNNY    101  23   6 W7        29.81F
DEER VALLEY    SUNNY    100  19   5 E5        29.83F
SCOTTSDALE     SUNNY     99  22   6 VRB3      29.85F
MESA-FALCON    SUNNY    N/A N/A N/A SW9       29.85F
MESA-GATEWAY   SUNNY     99  27   8 NW10G16   29.85F
CHANDLER       SUNNY    102  23   6 SW8       29.83F
$$

AZZ539-553-232200-
SOUTHWEST MARICOPA COUNTY AND PINAL COUNTY

CITY           SKY/WX    TMP DP  RH WIND       PRES   REMARKS
CASA GRANDE    SUNNY    100  28   8 SW8G16    29.85F
GILA BEND      SUNNY    103  19   5 W9        29.80F
$$

AZZ503-504-507>509-232200-
SOUTHEAST ARIZONA

CITY           SKY/WX    TMP DP  RH WIND       PRES   REMARKS
TUCSON         SUNNY     99  21   6 NW8G20    29.93F
DAVIS-MONTHAN  SUNNY     97  20   6 N8G21     29.92F
RYAN FIELD     SUNNY     99  21   6 N10G22    29.91F
NOGALES        SUNNY     95  17   6 NW10G18   30.00F
SIERRA VISTA   SUNNY     91  17   6 NW13G23   30.07F
DOUGLAS        SUNNY     94  18   6 N17G24    30.00F
SAFFORD        SUNNY     98  17   5 NW24G31   29.91F
$$

AZZ532-232200-
SOUTHWEST ARIZONA

CITY           SKY/WX    TMP DP  RH WIND       PRES   REMARKS
YUMA           SUNNY    108  24   5 SW8       29.77F HX 100
$$

CAZ041-043-047-048-061-525>527-560>570-232200-
SOUTHERN CALIFORNIA

CITY           SKY/WX    TMP DP  RH WIND       PRES   REMARKS
DOWNTOWN L.A.  SUNNY     70  58  65 MISG      29.94F
L.A. AIRPORT   PTSUNNY   65  57  75 W14       29.96F
SAN DIEGO      PTSUNNY   69  58  67 W13       29.97F
BURBANK        SUNNY     79  56  45 E8        29.93S
ONTARIO        MOSUNNY   88  57  34 SW15G24   29.91S
RIVERSIDE      SUNNY     90  58  33 W13G22    29.90S
PALM SPRINGS   SUNNY    111  26   5 E8        29.81F HX 102
EL CENTRO NAS  MOSUNNY  107  29   6 E5        29.78F
IMPERIAL       SUNNY    108  36   8 VRB3      29.76F HX 101
BLYTHE         SUNNY    107  25   5 VRB6      29.79F
NEEDLES        SUNNY    108  20   4 N9        29.84F
$$

NVZ020-UTZ003-232200-
SOUTHERN NEVADA-UTAH

CITY           SKY/WX    TMP DP  RH WIND       PRES   REMARKS
LAS VEGAS      MOSUNNY   97  23   7 N6        29.94F
SALT LAKE CITY PTSUNNY   80  37  21 N9        30.12F
$$

NMZ009-TXZ055-232200-
NEW MEXICO-WEST TEXAS

CITY           SKY/WX    TMP DP  RH WIND       PRES   REMARKS
ALBUQUERQUE    PTSUNNY   73  32  22 W3        30.06F
EL PASO        MOSUNNY   84  34  16 VRB7      29.99F
$$


........................KEY........................
SKY/WX - SKY CONDITION/WEATHER
TMP    - TEMPERATURE IN FAHRENHEIT
DP     - DEW POINT IN FAHRENHEIT
RH     - RELATIVE HUMIDITY IN PERCENT
WIND   - DIRECTION AND SPEED IN MILES PER HOUR (MPH)
VRB    - VARIABLE WIND DIRECTION
PRES   - MEAN SEA LEVEL PRESSURE IN INCHES OF MERCURY
         F - FALLING PRESSURE   R - RISING PRESSURE
         S - STEADY PRESSURE
VSB    - VISIBILITY IN MILES
HX     - HEAT INDEX IN FAHRENHEIT
WCI    - WIND CHILL INDEX IN FAHRENHEIT
TC     - TEMPERATURE IN CELSIUS WHICH IS ALSO KNOWN AS
         TEMPERATURE IN CENTIGRADE
AFB    - AIR FORCE BASE
         LUKE AFB IS LUKE AIR FORCE BASE
         DAVIS-MONTHAN IS DAVIS-MONTHAN AIR FORCE BASE
NAS    - NAVAL AIR STATION
         EL CENTRO NAS IS EL CENTRO NAVAL AIR STATION
N/A    - NOT AVAILABLE





USA.gov is the U.S. government's official web portal to all federal, state and local government web resources and services.